Weather History for Ambler, AK

Change the Weather History Date:

Monday, November 21, 2011

  Actual Average Record
Temperature  
Mean Temperature -8 °F -  
Max Temperature -4 °F 11 °F 35 °F (2007)
Min Temperature -11 °F 3 °F -36 °F (2008)
Degree Days  
Heating Degree Days 72    
Moisture  
Dew Point -28 °F    
Average Humidity 36    
Maximum Humidity 41    
Minimum Humidity 34    
Precipitation  
Precipitation 0.00 in - - ()
Sea Level Pressure  
Sea Level Pressure 29.63 in    
Wind  
Wind Speed 14 mph (North)    
Max Wind Speed 22 mph    
Max Gust Speed 34 mph    
Visibility 10 miles    
Events      
Averages and records for this station are not official NWS values.
T = Trace of Precipitation, MM = Missing Value Source: NWS Daily Summary

Daily Weather History Graph

Daily Weather History Graph

Search for Another Location

Airport:

Trip Planner

Search our weather history database for the weather conditions in past years. The results will help you decide how hot, cold, wet, or windy it might be!

Date:

Astronomy

Nov. 21, 2011 Rise Set
Actual Time 10:57 AM AKST 3:35 PM AKST
Civil Twilight 9:37 AM AKST 4:56 PM AKST
Nautical Twilight 8:24 AM AKST 6:08 PM AKST
Astronomical Twilight 7:20 AM AKST 7:13 PM AKST
Moon 5:05 AM AKST (11/21) 2:36 PM AKST (11/21)
Length of Visible Light 7h 19m
Length of Day
4h 38m
Waning Crescent, 16% of the Moon is Illuminated
Nov 21
Waning Crescent
Nov 24
New
Dec 2
First Quarter
Dec 10
Full
Dec 17
Last Quarter

Hourly Weather History & Observations

Time (AKST) Temp. Windchill Dew Point Humidity Pressure Visibility Wind Dir Wind Speed Gust Speed Precip Events Conditions
12:16 AM -4.0 °F -23.0 °F -25.6 °F 35% 29.69 in 10.0 mi North 12.7 mph 27.6 mph N/A   Overcast
12:36 AM -5.8 °F -25.2 °F -25.6 °F 38% 29.70 in 10.0 mi North 12.7 mph 25.3 mph N/A   Mostly Cloudy
12:56 AM -5.8 °F -28.2 °F -25.6 °F 38% 29.69 in 10.0 mi North 17.3 mph 26.5 mph N/A   Clear
1:16 AM -5.8 °F -25.2 °F -25.6 °F 38% 29.69 in 10.0 mi North 12.7 mph 19.6 mph N/A   Clear
1:36 AM -5.8 °F -28.2 °F -25.6 °F 38% 29.67 in 10.0 mi North 17.3 mph 24.2 mph N/A   Clear
1:56 AM -5.8 °F -28.8 °F -25.6 °F 38% 29.66 in 10.0 mi North 18.4 mph 29.9 mph N/A   Clear
2:16 AM -5.8 °F -27.5 °F -25.6 °F 38% 29.66 in 10.0 mi North 16.1 mph 29.9 mph N/A   Clear
2:36 AM -5.8 °F -24.4 °F -25.6 °F 38% 29.66 in 10.0 mi North 11.5 mph 25.3 mph N/A   Clear
2:56 AM -5.8 °F -23.4 °F -25.6 °F 38% 29.67 in 10.0 mi North 10.4 mph 21.9 mph N/A   Clear
3:16 AM -5.8 °F -23.4 °F -25.6 °F 38% 29.67 in 10.0 mi North 10.4 mph 21.9 mph N/A   Clear
3:36 AM -5.8 °F -27.5 °F -25.6 °F 38% 29.67 in 10.0 mi North 16.1 mph 26.5 mph N/A   Partly Cloudy
3:56 AM -5.8 °F -30.5 °F -27.4 °F 35% 29.65 in 10.0 mi North 21.9 mph 31.1 mph N/A   Scattered Clouds
4:16 AM -5.8 °F -27.5 °F -25.6 °F 38% 29.63 in 10.0 mi North 16.1 mph 34.5 mph N/A   Mostly Cloudy
4:36 AM -5.8 °F -23.4 °F -27.4 °F 35% 29.65 in 10.0 mi NNE 10.4 mph 23.0 mph N/A   Mostly Cloudy
4:56 AM -7.6 °F -28.3 °F -27.4 °F 38% 29.65 in 10.0 mi North 13.8 mph 24.2 mph N/A   Overcast
5:16 AM -7.6 °F -31.7 °F -27.4 °F 38% 29.63 in 10.0 mi North 19.6 mph 27.6 mph N/A   Mostly Cloudy
5:36 AM -5.8 °F -29.4 °F -27.4 °F 35% 29.60 in 10.0 mi North 19.6 mph 31.1 mph N/A   Mostly Cloudy
5:56 AM -5.8 °F -25.2 °F -27.4 °F 35% 29.61 in 10.0 mi North 12.7 mph 24.2 mph N/A   Mostly Cloudy
6:16 AM -7.6 °F -26.6 °F -29.2 °F 34% 29.61 in 10.0 mi NNE 11.5 mph 26.5 mph N/A   Partly Cloudy
6:36 AM -7.6 °F -30.5 °F -29.2 °F 34% 29.60 in 10.0 mi North 17.3 mph 27.6 mph N/A   Clear
6:56 AM -7.6 °F -29.8 °F -29.2 °F 34% 29.59 in 10.0 mi North 16.1 mph 28.8 mph N/A   Clear
7:16 AM -7.6 °F -30.5 °F -29.2 °F 34% 29.60 in 10.0 mi North 17.3 mph 27.6 mph N/A   Clear
7:36 AM -9.4 °F -34.7 °F -29.2 °F 37% 29.59 in 10.0 mi North 20.7 mph 28.8 mph N/A   Clear
7:56 AM -9.4 °F -32.8 °F -29.2 °F 37% 29.59 in 10.0 mi North 17.3 mph 32.2 mph N/A   Clear
8:16 AM -9.4 °F -33.5 °F -29.2 °F 37% 29.59 in 10.0 mi NNE 18.4 mph 26.5 mph N/A   Clear
8:36 AM -9.4 °F -32.8 °F -29.2 °F 37% 29.59 in 10.0 mi North 17.3 mph 32.2 mph N/A   Clear
8:56 AM -9.4 °F -34.1 °F -29.2 °F 37% 29.59 in 10.0 mi NNE 19.6 mph 28.8 mph N/A   Scattered Clouds
9:16 AM -9.4 °F -32.1 °F -29.2 °F 37% 29.59 in 10.0 mi NNE 16.1 mph 29.9 mph N/A   Scattered Clouds
9:36 AM -9.4 °F -33.5 °F -29.2 °F 37% 29.59 in 10.0 mi NNE 18.4 mph 26.5 mph N/A   Clear
9:56 AM -9.4 °F -32.8 °F -29.2 °F 37% 29.59 in 10.0 mi NNE 17.3 mph 26.5 mph N/A   Scattered Clouds
10:16 AM -9.4 °F -33.5 °F -29.2 °F 37% 29.59 in 10.0 mi North 18.4 mph 26.5 mph N/A   Partly Cloudy
10:36 AM -11.2 °F -34.4 °F -29.2 °F 41% 29.60 in 10.0 mi North 16.1 mph 25.3 mph N/A   Clear
10:56 AM -11.2 °F -33.7 °F -29.2 °F 41% 29.60 in 10.0 mi North 15.0 mph 23.0 mph N/A   Clear
11:16 AM -9.4 °F -29.8 °F -29.2 °F 37% 29.60 in 10.0 mi NNE 12.7 mph 26.5 mph N/A   Clear
11:36 AM -9.4 °F -30.6 °F -29.2 °F 37% 29.60 in 10.0 mi NNE 13.8 mph 24.2 mph N/A   Partly Cloudy
12:16 PM -9.4 °F -30.6 °F -29.2 °F 37% 29.62 in 10.0 mi NNE 13.8 mph 26.5 mph N/A   Clear
12:36 PM -9.4 °F -28.9 °F -29.2 °F 37% 29.61 in 10.0 mi North 11.5 mph 18.4 mph N/A   Clear
12:56 PM -9.4 °F -29.8 °F -29.2 °F 37% 29.62 in 10.0 mi North 12.7 mph 23.0 mph N/A   Clear
1:16 PM -9.4 °F -25.6 °F -29.2 °F 37% 29.62 in 10.0 mi North 8.1 mph 18.4 mph N/A   Clear
1:36 PM -9.4 °F -28.9 °F -27.4 °F 41% 29.62 in 10.0 mi North 11.5 mph 17.3 mph N/A   Clear
1:56 PM -7.6 °F -25.7 °F -29.2 °F 34% 29.63 in 10.0 mi North 10.4 mph 16.1 mph N/A   Clear
2:16 PM -7.6 °F -27.5 °F -29.2 °F 34% 29.63 in 10.0 mi NNE 12.7 mph 18.4 mph N/A   Clear
2:36 PM -9.4 °F -28.9 °F -29.2 °F 37% 29.64 in 10.0 mi North 11.5 mph 20.7 mph N/A   Partly Cloudy
2:56 PM -9.4 °F -26.8 °F -29.2 °F 37% 29.64 in 10.0 mi North 9.2 mph - N/A   Clear
3:16 PM -9.4 °F -26.8 °F -29.2 °F 37% 29.64 in 10.0 mi NNE 9.2 mph - N/A   Clear
3:36 PM -9.4 °F -29.8 °F -29.2 °F 37% 29.64 in 10.0 mi North 12.7 mph 18.4 mph N/A   Clear
3:56 PM -9.4 °F -28.9 °F -29.2 °F 37% 29.64 in 10.0 mi North 11.5 mph 20.7 mph N/A   Clear
4:16 PM -9.4 °F -27.9 °F -29.2 °F 37% 29.65 in 10.0 mi North 10.4 mph - N/A   Partly Cloudy
4:36 PM -7.6 °F -24.6 °F -29.2 °F 34% 29.65 in 10.0 mi North 9.2 mph 16.1 mph N/A   Clear
4:56 PM -7.6 °F -27.5 °F -29.2 °F 34% 29.65 in 10.0 mi North 12.7 mph 18.4 mph N/A   Clear
5:16 PM -9.4 °F -29.8 °F -29.2 °F 37% 29.65 in 10.0 mi North 12.7 mph 20.7 mph N/A   Clear
5:36 PM -7.6 °F -23.4 °F -29.2 °F 34% 29.66 in 10.0 mi North 8.1 mph 18.4 mph N/A   Scattered Clouds
5:56 PM -7.6 °F -28.3 °F -29.2 °F 34% 29.65 in 10.0 mi NNE 13.8 mph 19.6 mph N/A   Partly Cloudy
6:16 PM -7.6 °F -29.1 °F -29.2 °F 34% 29.65 in 10.0 mi North 15.0 mph 24.2 mph N/A   Clear
6:36 PM -7.6 °F -25.7 °F -27.4 °F 38% 29.65 in 10.0 mi NNE 10.4 mph 21.9 mph N/A   Partly Cloudy
6:56 PM -7.6 °F -27.5 °F -29.2 °F 34% 29.66 in 10.0 mi NNE 12.7 mph 19.6 mph N/A   Clear
7:16 PM -7.6 °F -24.6 °F -29.2 °F 34% 29.65 in 10.0 mi NNE 9.2 mph 21.9 mph N/A   Clear
7:36 PM -7.6 °F -26.6 °F -29.2 °F 34% 29.65 in 10.0 mi North 11.5 mph 19.6 mph N/A   Clear
7:56 PM -7.6 °F -23.4 °F -27.4 °F 38% 29.66 in 10.0 mi North 8.1 mph 16.1 mph N/A   Mostly Cloudy
8:16 PM -7.6 °F -25.7 °F -29.2 °F 34% 29.66 in 10.0 mi North 10.4 mph - N/A   Scattered Clouds
8:36 PM -7.6 °F -23.4 °F -29.2 °F 34% 29.66 in 10.0 mi North 8.1 mph 17.3 mph N/A   Partly Cloudy
8:56 PM -7.6 °F -24.6 °F -29.2 °F 34% 29.66 in 10.0 mi North 9.2 mph 16.1 mph N/A   Mostly Cloudy
9:16 PM -7.6 °F -25.7 °F -27.4 °F 38% 29.66 in 10.0 mi NNE 10.4 mph 19.6 mph N/A   Overcast
9:36 PM -7.6 °F -29.8 °F -29.2 °F 34% 29.66 in 10.0 mi NNE 16.1 mph - N/A   Mostly Cloudy
9:56 PM -7.6 °F -28.3 °F -29.2 °F 34% 29.66 in 10.0 mi NNE 13.8 mph 21.9 mph N/A   Mostly Cloudy
10:16 PM -7.6 °F -22.1 °F -29.2 °F 34% 29.66 in 10.0 mi North 6.9 mph - N/A   Overcast
10:36 PM -5.8 °F -24.4 °F -27.4 °F 35% 29.65 in 10.0 mi NNE 11.5 mph 17.3 mph N/A   Overcast
10:56 PM -7.6 °F -25.7 °F -29.2 °F 34% 29.66 in 10.0 mi NNE 10.4 mph 19.6 mph N/A   Mostly Cloudy
11:16 PM -7.6 °F -26.6 °F -29.2 °F 34% 29.66 in 10.0 mi North 11.5 mph 20.7 mph N/A   Scattered Clouds
11:36 PM -7.6 °F -26.6 °F -27.4 °F 38% 29.66 in 10.0 mi North 11.5 mph 23.0 mph N/A   Partly Cloudy
11:56 PM -11.2 °F -24.8 °F - N/A% 29.67 in 10.0 mi WNW 5.8 mph - N/A   Scattered Clouds